Theta_e
290 290 289 289 289 289 289 290 290 289 289 288 288 288 287 287 287 287 287 286 287 286
289 288 288 288 288 288 288 288 285 285 286 286 286 286 286 285 285 285 285 285 285 285
288 287 287 286 285 286 286 286 285 283 283 283 284 284 284 284 285 284 285 285 284 284
286 286 285 283 284 284 284 283 283 283 282 282 282 283 282 283 284 284 284 284 284 283
283 283 282 282 282 283 282 283 282 282 281 282 282 282 281 282 283 283 283 283 283 282
281 281 281 282 282 282 281 282 282 282 280 281 281 281 282 283 283 284 284 283 281 281
279 280 280 281 281 281 281 280 281 282 282 281 282 282 283 283 283 283 283 282 281 280
278 279 278 278 278 279 279 280 280 280 282 282 282 282 283 283 283 282 281 281 280 280
276 276 275 276 276 277 277 278 278 279 280 280 282 283 284 283 281 280 280 280 281 280
277 277 277 277 278 277 276 278 278 278 278 279 280 282 283 283 281 281 282 281 281 281
276 276 276 276 277 277 279 279 279 279 279 279 280 282 283 283 282 282 282 282 282 282
274 274 275 275 275 277 277 278 279 279 279 279 280 282 283 283 282 282 282 282 283 282
274 273 273 274 275 276 276 277 277 278 278 279 279 281 282 282 281 280 281 282 282 283
273 273 274 274 275 274 275 275 275 276 277 277 277 278 280 281 280 280 280 280 281 282
Wind_Speed
7 5 5 5 5 4 4 3 4 4 6 6 6 6 6 5 4 4 3 3 2 2
7 7 5 4 4 4 5 3 3 3 3 5 4 3 2 3 3 2 2 2 2 4
6 5 3 2 5 4 2 3 4 6 7 7 6 5 6 5 5 5 4 4 4 4
5 4 3 5 5 5 4 6 7 7 7 8 6 6 7 7 6 7 6 6 5 5
5 5 6 6 6 5 6 6 7 6 8 7 7 6 9 9 7 7 7 6 5 6
6 6 6 6 5 6 6 7 7 6 9 9 8 9 9 8 7 7 7 5 7 8
5 6 5 5 5 6 6 6 7 7 6 8 8 8 7 8 8 7 5 7 9 9
3 4 3 4 5 5 6 7 6 7 7 6 7 6 8 8 7 7 9 10 10 9
3 2 4 5 5 6 5 6 6 8 8 8 6 12 16 11 6 11 11 9 9 10
2 3 3 4 5 5 6 6 7 7 8 9 10 15 16 17 10 10 10 10 9 8
3 4 4 4 5 5 6 7 7 7 8 9 8 16 17 18 12 11 12 12 11 10
4 5 4 5 5 5 5 6 6 7 8 9 9 14 15 14 10 11 13 11 11 11
5 5 5 5 5 5 5 6 6 7 7 8 9 12 13 12 8 10 8 9 10 12
5 5 6 5 5 5 5 5 5 6 6 6 7 8 12 13 8 7 8 8 7 6
Wind_Direction
221 228 232 240 253 257 252 248 265 241 248 249 249 239 239 239 230 237 240 253 274 293
215 224 242 247 258 264 267 244 143 250 256 266 267 274 273 246 225 223 248 241 224 248
221 218 217 217 239 257 279 277 239 242 239 241 234 224 223 234 223 216 220 219 214 227
234 217 194 226 237 235 236 244 245 244 241 241 232 225 229 231 230 218 220 215 219 227
239 229 226 225 227 230 240 239 244 239 247 237 232 225 232 234 222 227 222 218 207 220
237 232 232 229 222 225 230 237 240 229 249 246 236 235 232 233 235 224 223 209 210 222
244 240 238 239 235 234 226 227 239 238 235 249 250 239 231 228 230 228 222 220 222 220
272 260 257 258 254 241 246 234 222 237 239 238 240 242 238 231 222 226 232 231 227 226
276 257 247 244 242 250 238 238 245 237 236 243 242 242 247 234 231 239 237 238 228 224
305 277 262 250 242 237 239 247 244 238 233 238 243 245 243 240 236 239 237 233 236 233
301 292 291 283 273 267 259 254 252 246 240 245 244 241 242 242 239 243 243 239 234 234
301 292 294 289 283 279 271 267 261 263 263 258 255 251 247 242 237 241 245 244 240 233
299 298 293 285 285 289 282 277 276 276 273 273 274 269 261 251 252 254 255 251 248 238
304 302 295 303 305 297 294 293 293 285 278 270 266 270 267 261 252 253 259 261 261 253